Torna al catalogo

ARIANE 2 DEB

AttivoGTO
NORAD 28567·DEBRIS·🇫🇷 France

Lanciato Jan 27, 1989 da Guiana Space Centre

Loading…

TLE

ObsoletoSource: Space-Track

Epoca: Sep 5, 2026, 14:05 UTC

1 28567U 89006AJ  26248.58691418  .00000215  00000-0  20382-2 0  9990
2 28567   7.9663 294.3441 7093612   6.7448 359.3207  2.38137835122403

Traccia ARIANE 2 DEB in tempo reale con AllMySat

Download on the App Store